ZHONGXING-1D

Last updated on Mon Jun 22 2026 00:03:07 GMT+0000 (Coordinated Universal Time)

1 49505U 21114A 26172.55845684 -.00000337 00000+0 00000+0 0 9997 2 49505 0.0236 129.8189 0000372 105.1038 6.0211 1.00274468 16867
UTC large
Height (km)
Speed (km/s)
/
Latitude / Longitude
Inclination (degrees)
Orbital Period (minutes)
Azimuth
Elevation
Range (km)
Doppler Factor

Next 0 passes for location: London (51.5072 / 0.1276)

No passes found over London.
ZHONGXING-1D